Current Weather Conditions: station ENRS

sailwx.info

See reports from other nearby stations

no recent reports received from weather station ID ENRS

Tides Pressure Air temp Water temp Dewpoint Dewpoint depression Visibility Wind speed Wind direction Waves Ship positions
date/time (UTC)wind fromknots sea level pressurealtimeterstation pressurevisibilityair tempwater tempwave heightnotes
2018-Apr-25 15:50 290 5 5.4 8.0
2018-Apr-25 15:20 5.4 7.0
2018-Apr-25 14:50 330 5 5.4 7.0
2018-Apr-25 14:20 330 5 5.4 8.0
2018-Apr-25 13:50 010 4 5.4 7.0
2018-Apr-25 12:50 360 2 5.4 7.0
2018-Apr-25 11:50 010 2 5.4 6.0
2018-Apr-25 10:50 070 4 5.4 6.0
2018-Apr-25 08:20 080 9 5.4 6.0
2018-Apr-25 06:50 080 12 5.4 6.0
2018-Apr-25 05:50 070 12 5.4 5.0
2018-Apr-25 05:20 070 11 5.4 5.0 Showers in the vicinity.
2018-Apr-25 04:50 080 11 5.4 Showers in the vicinity.
2018-Apr-24 16:20 140 14 3.2 6.0 Rain showers. Drizzle.
2018-Apr-24 15:50 130 15 5.4 6.0 Showers in the vicinity.
2018-Apr-24 15:20 140 14 5.4 6.0 Showers in the vicinity.
2018-Apr-24 14:50 140 14 5.4 6.0 Showers in the vicinity.
2018-Apr-24 14:20 140 13 5.4 6.0 Showers in the vicinity.
2018-Apr-24 13:50 140 12 4.9 6.0 Drizzle rain.
2018-Apr-24 12:50 150 13 5.4 7.0
2018-Apr-24 11:50 160 13 5.4 7.0
2018-Apr-24 11:20 160 12 5.4 6.0
2018-Apr-24 09:50 160 13 5.4 6.0
2018-Apr-24 08:50 160 13 5.4 6.0
2018-Apr-24 07:50 170 12 5.4 6.0 Light rain showers.
2018-Apr-24 05:50 170 9 5.4 6.0 Light rain showers.
2018-Apr-24 05:20 180 9 5.4 6.0 Light rain showers.
2018-Apr-24 04:50 190 11 5.4 6.0 Light rain showers.